Location: Aranbee
(34.0885°N, 118.2342°W)
Time: 16:58:08
(UTC+00:00)

A-11 Canister half - Pass Details

Date: 30 July 2021
Orbit: 1514 x 1685 km, 47.2° (Epoch: 17 September)

Event Time Altitude Azimuth Distance (km) Brightness Sun altitude
Rises 08:04:55 0° 305° (NW) 4,933 12.0 -37.5°
Reaches altitude 10° 08:08:06 10° 303° (WNW) 3,949 11.4 -37.5°
Enters shadow 08:16:39 64° 271° (W) 1,835 9.2 -37.3°
